Year,Month,Day,Hour,Minute,Value (Times are PST for temperature in C)
2013,08,22,00,00,14.60
2013,08,22,00,01,14.50
2013,08,22,00,02,14.50
2013,08,22,00,03,14.50
2013,08,22,00,04,14.40
2013,08,22,00,05,14.40
2013,08,22,00,06,14.40
2013,08,22,00,07,14.30
2013,08,22,00,08,14.30
2013,08,22,00,09,14.20
2013,08,22,00,10,14.20
2013,08,22,00,11,14.20
2013,08,22,00,12,14.20
2013,08,22,00,13,14.20
2013,08,22,00,14,14.20
2013,08,22,00,15,14.20
2013,08,22,00,16,14.20
2013,08,22,00,17,14.20
2013,08,22,00,18,14.20
2013,08,22,00,19,14.30
2013,08,22,00,20,14.30
2013,08,22,00,21,14.30
2013,08,22,00,22,14.30
2013,08,22,00,23,14.30
2013,08,22,00,24,14.30
2013,08,22,00,25,14.30
2013,08,22,00,26,14.30
2013,08,22,00,27,14.30
2013,08,22,00,28,14.30
2013,08,22,00,29,14.30
2013,08,22,00,30,14.30
2013,08,22,00,31,14.20
2013,08,22,00,32,14.20
2013,08,22,00,33,14.20
2013,08,22,00,34,14.10
2013,08,22,00,35,14.10
2013,08,22,00,36,14.10
2013,08,22,00,37,14.00
2013,08,22,00,38,14.00
2013,08,22,00,39,14.00
2013,08,22,00,40,13.90
2013,08,22,00,41,13.90
2013,08,22,00,42,13.90
2013,08,22,00,43,13.90
2013,08,22,00,44,13.90
2013,08,22,00,45,13.90
2013,08,22,00,46,13.90
2013,08,22,00,47,13.90
2013,08,22,00,48,13.90
2013,08,22,00,49,13.90
2013,08,22,00,50,13.90
2013,08,22,00,51,13.90
2013,08,22,00,52,13.90
2013,08,22,00,53,13.90
2013,08,22,00,54,13.90
2013,08,22,00,55,13.90
2013,08,22,00,56,13.90
2013,08,22,00,57,13.80
2013,08,22,00,58,13.80
2013,08,22,00,59,13.70
2013,08,22,01,00,13.70
2013,08,22,01,01,13.60
2013,08,22,01,02,13.60
2013,08,22,01,03,13.50
2013,08,22,01,04,13.50
2013,08,22,01,05,13.40
2013,08,22,01,06,13.40
2013,08,22,01,07,13.40
2013,08,22,01,08,13.30
2013,08,22,01,09,13.30
2013,08,22,01,10,13.30
2013,08,22,01,11,13.30
2013,08,22,01,12,13.20
2013,08,22,01,13,13.20
2013,08,22,01,14,13.20
2013,08,22,01,15,13.20
2013,08,22,01,16,13.20
2013,08,22,01,17,13.20
2013,08,22,01,18,13.20
2013,08,22,01,19,13.20
2013,08,22,01,20,13.20
2013,08,22,01,21,13.20
2013,08,22,01,22,13.20
2013,08,22,01,23,13.20
2013,08,22,01,24,13.10
2013,08,22,01,25,13.20
2013,08,22,01,26,13.20
2013,08,22,01,27,13.20
2013,08,22,01,28,13.20
2013,08,22,01,29,13.30
2013,08,22,01,30,13.30
2013,08,22,01,31,13.30
2013,08,22,01,32,13.30
2013,08,22,01,33,13.30
2013,08,22,01,34,13.20
2013,08,22,01,35,13.20
2013,08,22,01,36,13.20
2013,08,22,01,37,13.20
2013,08,22,01,38,13.10
2013,08,22,01,39,13.10
2013,08,22,01,40,13.00
2013,08,22,01,41,13.00
2013,08,22,01,42,12.90
2013,08,22,01,43,12.90
2013,08,22,01,44,12.90
2013,08,22,01,45,12.90
2013,08,22,01,46,12.90
2013,08,22,01,47,12.90
2013,08,22,01,48,12.90
2013,08,22,01,49,12.90
2013,08,22,01,50,12.90
2013,08,22,01,51,12.90
2013,08,22,01,52,12.80
2013,08,22,01,53,12.80
2013,08,22,01,54,12.80
2013,08,22,01,55,12.80
2013,08,22,01,56,12.80
2013,08,22,01,57,12.80
2013,08,22,01,58,12.80
2013,08,22,01,59,12.70
2013,08,22,02,00,12.70
2013,08,22,02,01,12.70
2013,08,22,02,02,12.60
2013,08,22,02,03,12.60
2013,08,22,02,04,12.60
2013,08,22,02,05,12.50
2013,08,22,02,06,12.50
2013,08,22,02,07,12.50
2013,08,22,02,08,12.50
2013,08,22,02,09,12.40
2013,08,22,02,10,12.40
2013,08,22,02,11,12.40
2013,08,22,02,12,12.40
2013,08,22,02,13,12.30
2013,08,22,02,14,12.30
2013,08,22,02,15,12.30
2013,08,22,02,16,12.20
2013,08,22,02,17,12.20
2013,08,22,02,18,12.20
2013,08,22,02,19,12.10
2013,08,22,02,20,12.10
2013,08,22,02,21,12.10
2013,08,22,02,22,12.10
2013,08,22,02,23,12.00
2013,08,22,02,24,12.00
2013,08,22,02,25,12.00
2013,08,22,02,26,12.00
2013,08,22,02,27,12.00
2013,08,22,02,28,12.00
2013,08,22,02,29,12.00
2013,08,22,02,30,12.00
2013,08,22,02,31,11.90
2013,08,22,02,32,11.90
2013,08,22,02,33,11.90
2013,08,22,02,34,11.90
2013,08,22,02,35,11.90
2013,08,22,02,36,11.90
2013,08,22,02,37,11.90
2013,08,22,02,38,11.80
2013,08,22,02,39,11.80
2013,08,22,02,40,11.80
2013,08,22,02,41,11.80
2013,08,22,02,42,11.80
2013,08,22,02,43,11.80
2013,08,22,02,44,11.70
2013,08,22,02,45,11.70
2013,08,22,02,46,11.70
2013,08,22,02,47,11.70
2013,08,22,02,48,11.70
2013,08,22,02,49,11.70
2013,08,22,02,50,11.60
2013,08,22,02,51,11.60
2013,08,22,02,52,11.60
2013,08,22,02,53,11.60
2013,08,22,02,54,11.50
2013,08,22,02,55,11.50
2013,08,22,02,56,11.50
2013,08,22,02,57,11.50
2013,08,22,02,58,11.50
2013,08,22,02,59,11.50
2013,08,22,03,00,11.50
2013,08,22,03,01,11.60
2013,08,22,03,02,11.60
2013,08,22,03,03,11.60
2013,08,22,03,04,11.60
2013,08,22,03,05,11.60
2013,08,22,03,06,11.60
2013,08,22,03,07,11.60
2013,08,22,03,08,11.60
2013,08,22,03,09,11.50
2013,08,22,03,10,11.50
2013,08,22,03,11,11.50
2013,08,22,03,12,11.50
2013,08,22,03,13,11.50
2013,08,22,03,14,11.40
2013,08,22,03,15,11.40
2013,08,22,03,16,11.40
2013,08,22,03,17,11.40
2013,08,22,03,18,11.40
2013,08,22,03,19,11.30
2013,08,22,03,20,11.30
2013,08,22,03,21,11.30
2013,08,22,03,22,11.30
2013,08,22,03,23,11.30
2013,08,22,03,24,11.30
2013,08,22,03,25,11.30
2013,08,22,03,26,11.30
2013,08,22,03,27,11.30
2013,08,22,03,28,11.30
2013,08,22,03,29,11.30
2013,08,22,03,30,11.30
2013,08,22,03,31,11.30
2013,08,22,03,32,11.30
2013,08,22,03,33,11.30
2013,08,22,03,34,11.30
2013,08,22,03,35,11.40
2013,08,22,03,36,11.40
2013,08,22,03,37,11.40
2013,08,22,03,38,11.40
2013,08,22,03,39,11.40
2013,08,22,03,40,11.40
2013,08,22,03,41,11.40
2013,08,22,03,42,11.40
2013,08,22,03,43,11.40
2013,08,22,03,44,11.40
2013,08,22,03,45,11.40
2013,08,22,03,46,11.40
2013,08,22,03,47,11.40
2013,08,22,03,48,11.40
2013,08,22,03,49,11.40
2013,08,22,03,50,11.40
2013,08,22,03,51,11.40
2013,08,22,03,52,11.40
2013,08,22,03,53,11.40
2013,08,22,03,54,11.40
2013,08,22,03,55,11.40
2013,08,22,03,56,11.40
2013,08,22,03,57,11.40
2013,08,22,03,58,11.40
2013,08,22,03,59,11.40
2013,08,22,04,00,11.40
2013,08,22,04,01,11.30
2013,08,22,04,02,11.30
2013,08,22,04,03,11.30
2013,08,22,04,04,11.30
2013,08,22,04,05,11.30
2013,08,22,04,06,11.30
2013,08,22,04,07,11.30
2013,08,22,04,08,11.30
2013,08,22,04,09,11.30
2013,08,22,04,10,11.30
2013,08,22,04,11,11.30
2013,08,22,04,12,11.30
2013,08,22,04,13,11.30
2013,08,22,04,14,11.30
2013,08,22,04,15,11.30
2013,08,22,04,16,11.30
2013,08,22,04,17,11.30
2013,08,22,04,18,11.30
2013,08,22,04,19,11.30
2013,08,22,04,20,11.30
2013,08,22,04,21,11.30
2013,08,22,04,22,11.20
2013,08,22,04,23,11.20
2013,08,22,04,24,11.20
2013,08,22,04,25,11.20
2013,08,22,04,26,11.20
2013,08,22,04,27,11.20
2013,08,22,04,28,11.20
2013,08,22,04,29,11.20
2013,08,22,04,30,11.20
2013,08,22,04,31,11.20
2013,08,22,04,32,11.20
2013,08,22,04,33,11.20
2013,08,22,04,34,11.20
2013,08,22,04,35,11.20
2013,08,22,04,36,11.20
2013,08,22,04,37,11.20
2013,08,22,04,38,11.20
2013,08,22,04,39,11.20
2013,08,22,04,40,11.20
2013,08,22,04,41,11.20
2013,08,22,04,42,11.20
2013,08,22,04,43,11.10
2013,08,22,04,44,11.10
2013,08,22,04,45,11.10
2013,08,22,04,46,11.10
2013,08,22,04,47,11.10
2013,08,22,04,48,11.00
2013,08,22,04,49,11.00
2013,08,22,04,50,11.00
2013,08,22,04,51,11.00
2013,08,22,04,52,11.00
2013,08,22,04,53,11.00
2013,08,22,04,54,11.00
2013,08,22,04,55,10.90
2013,08,22,04,56,10.90
2013,08,22,04,57,10.90
2013,08,22,04,58,10.90
2013,08,22,04,59,10.90
2013,08,22,05,00,10.90
2013,08,22,05,01,10.90
2013,08,22,05,02,10.90
2013,08,22,05,03,10.90
2013,08,22,05,04,10.90
2013,08,22,05,05,10.90
2013,08,22,05,06,10.90
2013,08,22,05,07,10.90
2013,08,22,05,08,10.90
2013,08,22,05,09,10.90
2013,08,22,05,10,11.00
2013,08,22,05,11,11.00
2013,08,22,05,12,11.00
2013,08,22,05,13,10.90
2013,08,22,05,14,10.90
2013,08,22,05,15,10.90
2013,08,22,05,16,10.90
2013,08,22,05,17,10.80
2013,08,22,05,18,10.80
2013,08,22,05,19,10.80
2013,08,22,05,20,10.80
2013,08,22,05,21,10.80
2013,08,22,05,22,10.80
2013,08,22,05,23,10.80
2013,08,22,05,24,10.80
2013,08,22,05,25,10.80
2013,08,22,05,26,10.80
2013,08,22,05,27,10.80
2013,08,22,05,28,10.80
2013,08,22,05,29,10.80
2013,08,22,05,30,10.80
2013,08,22,05,31,10.80
2013,08,22,05,32,10.80
2013,08,22,05,33,10.80
2013,08,22,05,34,10.70
2013,08,22,05,35,10.70
2013,08,22,05,36,10.70
2013,08,22,05,37,10.70
2013,08,22,05,38,10.70
2013,08,22,05,39,10.70
2013,08,22,05,40,10.70
2013,08,22,05,41,10.70
2013,08,22,05,42,10.70
2013,08,22,05,43,10.70
2013,08,22,05,44,10.70
2013,08,22,05,45,10.70
2013,08,22,05,46,10.60
2013,08,22,05,47,10.60
2013,08,22,05,48,10.60
2013,08,22,05,49,10.60
2013,08,22,05,50,10.60
2013,08,22,05,51,10.60
2013,08,22,05,52,10.70
2013,08,22,05,53,10.70
2013,08,22,05,54,10.70
2013,08,22,05,55,10.70
2013,08,22,05,56,10.70
2013,08,22,05,57,10.70
2013,08,22,05,58,10.70
2013,08,22,05,59,10.70
2013,08,22,06,00,10.70
2013,08,22,06,01,10.70
2013,08,22,06,02,10.60
2013,08,22,06,03,10.60
2013,08,22,06,04,10.60
2013,08,22,06,05,10.60
2013,08,22,06,06,10.60
2013,08,22,06,07,10.70
2013,08,22,06,08,10.70
2013,08,22,06,09,10.70
2013,08,22,06,10,10.60
2013,08,22,06,11,10.60
2013,08,22,06,12,10.70
2013,08,22,06,13,10.70
2013,08,22,06,14,10.70
2013,08,22,06,15,10.80
2013,08,22,06,16,10.80
2013,08,22,06,17,10.80
2013,08,22,06,18,10.90
2013,08,22,06,19,11.00
2013,08,22,06,20,11.00
2013,08,22,06,21,11.10
2013,08,22,06,22,11.10
2013,08,22,06,23,11.10
2013,08,22,06,24,11.10
2013,08,22,06,25,11.10
2013,08,22,06,26,11.10
2013,08,22,06,27,11.10
2013,08,22,06,28,11.10
2013,08,22,06,29,11.10
2013,08,22,06,30,11.10
2013,08,22,06,31,11.10
2013,08,22,06,32,11.20
2013,08,22,06,33,11.20
2013,08,22,06,34,11.20
2013,08,22,06,35,11.20
2013,08,22,06,36,11.20
2013,08,22,06,37,11.20
2013,08,22,06,38,11.20
2013,08,22,06,39,11.20
2013,08,22,06,40,11.20
2013,08,22,06,41,11.20
2013,08,22,06,42,11.20
2013,08,22,06,43,11.20
2013,08,22,06,44,11.30
2013,08,22,06,45,11.30
2013,08,22,06,46,11.30
2013,08,22,06,47,11.30
2013,08,22,06,48,11.30
2013,08,22,06,49,11.30
2013,08,22,06,50,11.30
2013,08,22,06,51,11.30
2013,08,22,06,52,11.30
2013,08,22,06,53,11.30
2013,08,22,06,54,11.30
2013,08,22,06,55,11.30
2013,08,22,06,56,11.30
2013,08,22,06,57,11.30
2013,08,22,06,58,11.30
2013,08,22,06,59,11.40
2013,08,22,07,00,11.40
2013,08,22,07,01,11.40
2013,08,22,07,02,11.50
2013,08,22,07,03,11.50
2013,08,22,07,04,11.50
2013,08,22,07,05,11.60
2013,08,22,07,06,11.60
2013,08,22,07,07,11.60
2013,08,22,07,08,11.70
2013,08,22,07,09,11.70
2013,08,22,07,10,11.70
2013,08,22,07,11,11.80
2013,08,22,07,12,11.90
2013,08,22,07,13,11.90
2013,08,22,07,14,12.00
2013,08,22,07,15,12.00
2013,08,22,07,16,12.10
2013,08,22,07,17,12.10
2013,08,22,07,18,12.20
2013,08,22,07,19,12.20
2013,08,22,07,20,12.30
2013,08,22,07,21,12.30
2013,08,22,07,22,12.40
2013,08,22,07,23,12.50
2013,08,22,07,24,12.60
2013,08,22,07,25,12.70
2013,08,22,07,26,12.80
2013,08,22,07,27,12.90
2013,08,22,07,28,13.00
2013,08,22,07,29,13.10
2013,08,22,07,30,13.20
2013,08,22,07,31,13.30
2013,08,22,07,32,13.40
2013,08,22,07,33,13.50
2013,08,22,07,34,13.60
2013,08,22,07,35,13.70
2013,08,22,07,36,13.80
2013,08,22,07,37,13.90
2013,08,22,07,38,14.00
2013,08,22,07,39,14.10
2013,08,22,07,40,14.20
2013,08,22,07,41,14.20
2013,08,22,07,42,14.30
2013,08,22,07,43,14.40
2013,08,22,07,44,14.40
2013,08,22,07,45,14.50
2013,08,22,07,46,14.50
2013,08,22,07,47,14.60
2013,08,22,07,48,14.70
2013,08,22,07,49,14.70
2013,08,22,07,50,14.80
2013,08,22,07,51,14.90
2013,08,22,07,52,15.00
2013,08,22,07,53,15.00
2013,08,22,07,54,15.00
2013,08,22,07,55,15.00
2013,08,22,07,56,15.20
2013,08,22,07,57,15.30
2013,08,22,07,58,15.30
2013,08,22,07,59,15.40
2013,08,22,08,00,15.50
2013,08,22,08,01,15.60
2013,08,22,08,02,15.70
2013,08,22,08,03,15.70
2013,08,22,08,04,15.80
2013,08,22,08,05,15.90
2013,08,22,08,06,16.00
2013,08,22,08,07,16.00
2013,08,22,08,08,16.10
2013,08,22,08,09,16.20
2013,08,22,08,10,16.20
2013,08,22,08,11,16.30
2013,08,22,08,12,16.30
2013,08,22,08,13,16.40
2013,08,22,08,14,16.50
2013,08,22,08,15,16.60
2013,08,22,08,16,16.70
2013,08,22,08,17,16.80
2013,08,22,08,18,17.00
2013,08,22,08,19,17.10
2013,08,22,08,20,17.20
2013,08,22,08,21,17.30
2013,08,22,08,22,17.40
2013,08,22,08,23,17.50
2013,08,22,08,24,17.60
2013,08,22,08,25,17.70
2013,08,22,08,26,17.80
2013,08,22,08,27,18.00
2013,08,22,08,28,18.10
2013,08,22,08,29,18.30
2013,08,22,08,30,18.40
2013,08,22,08,31,18.60
2013,08,22,08,32,18.70
2013,08,22,08,33,18.80
2013,08,22,08,34,18.90
2013,08,22,08,35,19.00
2013,08,22,08,36,19.10
2013,08,22,08,37,19.20
2013,08,22,08,38,19.20
2013,08,22,08,39,19.30
2013,08,22,08,40,19.30
2013,08,22,08,41,19.30
2013,08,22,08,42,19.40
2013,08,22,08,43,19.40
2013,08,22,08,44,19.40
2013,08,22,08,45,19.50
2013,08,22,08,46,19.50
2013,08,22,08,47,19.60
2013,08,22,08,48,19.70
2013,08,22,08,49,19.70
2013,08,22,08,50,19.80
2013,08,22,08,51,19.80
2013,08,22,08,52,19.90
2013,08,22,08,53,19.90
2013,08,22,08,54,19.90
2013,08,22,08,55,19.90
2013,08,22,08,56,19.90
2013,08,22,08,57,19.90
2013,08,22,08,58,19.90
2013,08,22,08,59,19.90
2013,08,22,09,00,20.00
2013,08,22,09,01,20.00
2013,08,22,09,02,20.00
2013,08,22,09,03,20.10
2013,08,22,09,04,20.10
2013,08,22,09,05,20.20
2013,08,22,09,06,20.30
2013,08,22,09,07,20.40
2013,08,22,09,08,20.50
2013,08,22,09,09,20.50
2013,08,22,09,10,20.60
2013,08,22,09,11,20.60
2013,08,22,09,12,20.60
2013,08,22,09,13,20.70
2013,08,22,09,14,20.70
2013,08,22,09,15,20.70
2013,08,22,09,16,20.80
2013,08,22,09,17,20.80
2013,08,22,09,18,20.70
2013,08,22,09,19,20.70
2013,08,22,09,20,20.70
2013,08,22,09,21,20.80
2013,08,22,09,22,20.80
2013,08,22,09,23,20.80
2013,08,22,09,24,20.80
2013,08,22,09,25,20.80
2013,08,22,09,26,20.80
2013,08,22,09,27,20.80
2013,08,22,09,28,20.90
2013,08,22,09,29,20.90
2013,08,22,09,30,20.90
2013,08,22,09,31,20.90
2013,08,22,09,32,20.90
2013,08,22,09,33,21.00
2013,08,22,09,34,21.00
2013,08,22,09,35,21.10
2013,08,22,09,36,21.20
2013,08,22,09,37,21.20
2013,08,22,09,38,21.30
2013,08,22,09,39,21.40
2013,08,22,09,40,21.50
2013,08,22,09,41,21.50
2013,08,22,09,42,21.60
2013,08,22,09,43,21.60
2013,08,22,09,44,21.60
2013,08,22,09,45,21.60
2013,08,22,09,46,21.70
2013,08,22,09,47,21.80
2013,08,22,09,48,21.80
2013,08,22,09,49,21.90
2013,08,22,09,50,22.00
2013,08,22,09,51,22.10
2013,08,22,09,52,22.10
2013,08,22,09,53,22.00
2013,08,22,09,54,21.90
2013,08,22,09,55,21.80
2013,08,22,09,56,21.80
2013,08,22,09,57,21.70
2013,08,22,09,58,21.70
2013,08,22,09,59,21.70
2013,08,22,10,00,21.70
2013,08,22,10,01,21.80
2013,08,22,10,02,21.80
2013,08,22,10,03,21.90
2013,08,22,10,04,21.90
2013,08,22,10,05,22.00
2013,08,22,10,06,22.10
2013,08,22,10,07,22.10
2013,08,22,10,08,22.20
2013,08,22,10,09,22.20
2013,08,22,10,10,22.30
2013,08,22,10,11,22.30
2013,08,22,10,12,22.30
2013,08,22,10,13,22.30
2013,08,22,10,14,22.20
2013,08,22,10,15,22.20
2013,08,22,10,16,22.10
2013,08,22,10,17,22.20
2013,08,22,10,18,22.10
2013,08,22,10,19,22.00
2013,08,22,10,20,22.00
2013,08,22,10,21,22.00
2013,08,22,10,22,22.10
2013,08,22,10,23,22.10
2013,08,22,10,24,22.10
2013,08,22,10,25,22.10
2013,08,22,10,26,22.20
2013,08,22,10,27,22.20
2013,08,22,10,28,22.30
2013,08,22,10,29,22.30
2013,08,22,10,30,22.40
2013,08,22,10,31,22.40
2013,08,22,10,32,22.40
2013,08,22,10,33,22.40
2013,08,22,10,34,22.30
2013,08,22,10,35,22.30
2013,08,22,10,36,22.30
2013,08,22,10,37,22.30
2013,08,22,10,38,22.20
2013,08,22,10,39,22.20
2013,08,22,10,40,22.20
2013,08,22,10,41,22.30
2013,08,22,10,42,22.30
2013,08,22,10,43,22.40
2013,08,22,10,44,22.50
2013,08,22,10,45,22.60
2013,08,22,10,46,22.60
2013,08,22,10,47,22.60
2013,08,22,10,48,22.60
2013,08,22,10,49,22.60
2013,08,22,10,50,22.60
2013,08,22,10,51,22.60
2013,08,22,10,52,22.60
2013,08,22,10,53,22.70
2013,08,22,10,54,22.70
2013,08,22,10,55,22.80
2013,08,22,10,56,22.80
2013,08,22,10,57,22.90
2013,08,22,10,58,23.00
2013,08,22,10,59,23.10
2013,08,22,11,00,23.10
2013,08,22,11,01,23.20
2013,08,22,11,02,23.20
2013,08,22,11,03,23.30
2013,08,22,11,04,23.30
2013,08,22,11,05,23.30
2013,08,22,11,06,23.30
2013,08,22,11,07,23.20
2013,08,22,11,08,23.20
2013,08,22,11,09,23.20
2013,08,22,11,10,23.30
2013,08,22,11,11,23.30
2013,08,22,11,12,23.40
2013,08,22,11,13,23.40
2013,08,22,11,14,23.40
2013,08,22,11,15,23.40
2013,08,22,11,16,23.40
2013,08,22,11,17,23.30
2013,08,22,11,18,23.30
2013,08,22,11,19,23.30
2013,08,22,11,20,23.30
2013,08,22,11,21,23.30
2013,08,22,11,22,23.30
2013,08,22,11,23,23.30
2013,08,22,11,24,23.40
2013,08,22,11,25,23.40
2013,08,22,11,26,23.50
2013,08,22,11,27,23.50
2013,08,22,11,28,23.60
2013,08,22,11,29,23.70
2013,08,22,11,30,23.80
2013,08,22,11,31,23.80
2013,08,22,11,32,23.90
2013,08,22,11,33,23.90
2013,08,22,11,34,24.00
2013,08,22,11,35,24.10
2013,08,22,11,36,24.20
2013,08,22,11,37,24.30
2013,08,22,11,38,24.30
2013,08,22,11,39,24.30
2013,08,22,11,40,24.30
2013,08,22,11,41,24.30
2013,08,22,11,42,24.30
2013,08,22,11,43,24.30
2013,08,22,11,44,24.20
2013,08,22,11,45,24.10
2013,08,22,11,46,24.10
2013,08,22,11,47,24.10
2013,08,22,11,48,24.10
2013,08,22,11,49,24.10
2013,08,22,11,50,24.10
2013,08,22,11,51,24.10
2013,08,22,11,52,24.10
2013,08,22,11,53,24.20
2013,08,22,11,54,24.20
2013,08,22,11,55,24.30
2013,08,22,11,56,24.40
2013,08,22,11,57,24.40
2013,08,22,11,58,24.40
2013,08,22,11,59,24.40
2013,08,22,12,00,24.30
2013,08,22,12,01,24.30
2013,08,22,12,02,24.30
2013,08,22,12,03,24.30
2013,08,22,12,04,24.30
2013,08,22,12,05,24.20
2013,08,22,12,06,24.10
2013,08,22,12,07,24.00
2013,08,22,12,08,24.00
2013,08,22,12,09,23.90
2013,08,22,12,10,23.80
2013,08,22,12,11,23.70
2013,08,22,12,12,23.60
2013,08,22,12,13,23.60
2013,08,22,12,14,23.60
2013,08,22,12,15,23.60
2013,08,22,12,16,23.70
2013,08,22,12,17,23.70
2013,08,22,12,18,23.80
2013,08,22,12,19,23.90
2013,08,22,12,20,24.00
2013,08,22,12,21,24.00
2013,08,22,12,22,24.10
2013,08,22,12,23,24.00
2013,08,22,12,24,24.00
2013,08,22,12,25,24.00
2013,08,22,12,26,24.00
2013,08,22,12,27,24.00
2013,08,22,12,28,24.00
2013,08,22,12,29,24.00
2013,08,22,12,30,24.00
2013,08,22,12,31,24.00
2013,08,22,12,32,24.00
2013,08,22,12,33,24.00
2013,08,22,12,34,24.00
2013,08,22,12,35,24.10
2013,08,22,12,36,24.20
2013,08,22,12,37,24.30
2013,08,22,12,38,24.30
2013,08,22,12,39,24.20
2013,08,22,12,40,24.10
2013,08,22,12,41,24.00
2013,08,22,12,42,23.90
2013,08,22,12,43,23.80
2013,08,22,12,44,23.70
2013,08,22,12,45,23.70
2013,08,22,12,46,23.70
2013,08,22,12,47,23.80
2013,08,22,12,48,23.80
2013,08,22,12,49,23.90
2013,08,22,12,50,24.00
2013,08,22,12,51,24.20
2013,08,22,12,52,24.30
2013,08,22,12,53,24.40
2013,08,22,12,54,24.50
2013,08,22,12,55,24.50
2013,08,22,12,56,24.50
2013,08,22,12,57,24.50
2013,08,22,12,58,24.60
2013,08,22,12,59,24.60
2013,08,22,13,00,24.60
2013,08,22,13,01,24.70
2013,08,22,13,02,24.60
2013,08,22,13,03,24.50
2013,08,22,13,04,24.50
2013,08,22,13,05,24.50
2013,08,22,13,06,24.50
2013,08,22,13,07,24.50
2013,08,22,13,08,24.40
2013,08,22,13,09,24.40
2013,08,22,13,10,24.40
2013,08,22,13,11,24.30
2013,08,22,13,12,24.30
2013,08,22,13,13,24.30
2013,08,22,13,14,24.40
2013,08,22,13,15,24.40
2013,08,22,13,16,24.40
2013,08,22,13,17,24.50
2013,08,22,13,18,24.60
2013,08,22,13,19,24.60
2013,08,22,13,20,24.70
2013,08,22,13,21,24.70
2013,08,22,13,22,24.80
2013,08,22,13,23,24.80
2013,08,22,13,24,24.90
2013,08,22,13,25,25.00
2013,08,22,13,26,25.10
2013,08,22,13,27,25.10
2013,08,22,13,28,25.10
2013,08,22,13,29,25.10
2013,08,22,13,30,25.20
2013,08,22,13,31,25.10
2013,08,22,13,32,24.90
2013,08,22,13,33,24.80
2013,08,22,13,34,24.60
2013,08,22,13,35,24.50
2013,08,22,13,36,24.40
2013,08,22,13,37,24.50
2013,08,22,13,38,24.50
2013,08,22,13,39,24.50
2013,08,22,13,40,24.50
2013,08,22,13,41,24.40
2013,08,22,13,42,24.40
2013,08,22,13,43,24.40
2013,08,22,13,44,24.40
2013,08,22,13,45,24.40
2013,08,22,13,46,24.40
2013,08,22,13,47,24.50
2013,08,22,13,48,24.60
2013,08,22,13,49,24.80
2013,08,22,13,50,24.90
2013,08,22,13,51,25.10
2013,08,22,13,52,25.30
2013,08,22,13,53,25.40
2013,08,22,13,54,25.50
2013,08,22,13,55,25.60
2013,08,22,13,56,25.70
2013,08,22,13,57,25.70
2013,08,22,13,58,25.70
2013,08,22,13,59,25.80
2013,08,22,14,00,25.80
2013,08,22,14,01,25.90
2013,08,22,14,02,25.90
2013,08,22,14,03,26.00
2013,08,22,14,04,26.10
2013,08,22,14,05,26.10
2013,08,22,14,06,26.20
2013,08,22,14,07,26.20
2013,08,22,14,08,26.30
2013,08,22,14,09,26.30
2013,08,22,14,10,26.30
2013,08,22,14,11,26.40
2013,08,22,14,12,26.40
2013,08,22,14,13,26.40
2013,08,22,14,14,26.50
2013,08,22,14,15,26.50
2013,08,22,14,16,26.60
2013,08,22,14,17,26.60
2013,08,22,14,18,26.50
2013,08,22,14,19,26.40
2013,08,22,14,20,26.30
2013,08,22,14,21,26.20
2013,08,22,14,22,26.10
2013,08,22,14,23,26.00
2013,08,22,14,24,25.90
2013,08,22,14,25,25.70
2013,08,22,14,26,25.60
2013,08,22,14,27,25.50
2013,08,22,14,28,25.40
2013,08,22,14,29,25.40
2013,08,22,14,30,25.40
2013,08,22,14,31,25.30
2013,08,22,14,32,25.30
2013,08,22,14,33,25.30
2013,08,22,14,34,25.30
2013,08,22,14,35,25.30
2013,08,22,14,36,25.30
2013,08,22,14,37,25.30
2013,08,22,14,38,25.20
2013,08,22,14,39,25.10
2013,08,22,14,40,25.00
2013,08,22,14,41,24.90
2013,08,22,14,42,24.80
2013,08,22,14,43,24.80
2013,08,22,14,44,24.80
2013,08,22,14,45,24.70
2013,08,22,14,46,24.70
2013,08,22,14,47,24.70
2013,08,22,14,48,24.70
2013,08,22,14,49,24.70
2013,08,22,14,50,24.80
2013,08,22,14,51,24.80
2013,08,22,14,52,24.80
2013,08,22,14,53,24.70
2013,08,22,14,54,24.80
2013,08,22,14,55,24.80
2013,08,22,14,56,24.80
2013,08,22,14,57,24.70
2013,08,22,14,58,24.70
2013,08,22,14,59,24.70
2013,08,22,15,00,24.60
2013,08,22,15,01,24.60
2013,08,22,15,02,24.50
2013,08,22,15,03,24.40
2013,08,22,15,04,24.30
2013,08,22,15,05,24.20
2013,08,22,15,06,24.20
2013,08,22,15,07,24.10
2013,08,22,15,08,24.10
2013,08,22,15,09,24.00
2013,08,22,15,10,23.90
2013,08,22,15,11,23.90
2013,08,22,15,12,23.90
2013,08,22,15,13,23.90
2013,08,22,15,14,23.90
2013,08,22,15,15,23.90
2013,08,22,15,16,23.90
2013,08,22,15,17,23.90
2013,08,22,15,18,23.90
2013,08,22,15,19,23.80
2013,08,22,15,20,23.70
2013,08,22,15,21,23.70
2013,08,22,15,22,23.70
2013,08,22,15,23,23.60
2013,08,22,15,24,23.60
2013,08,22,15,25,23.70
2013,08,22,15,26,23.70
2013,08,22,15,27,23.80
2013,08,22,15,28,23.80
2013,08,22,15,29,23.90
2013,08,22,15,30,24.00
2013,08,22,15,31,24.00
2013,08,22,15,32,24.00
2013,08,22,15,33,24.10
2013,08,22,15,34,24.10
2013,08,22,15,35,24.00
2013,08,22,15,36,24.00
2013,08,22,15,37,23.90
2013,08,22,15,38,23.90
2013,08,22,15,39,23.90
2013,08,22,15,40,23.90
2013,08,22,15,41,23.90
2013,08,22,15,42,23.90
2013,08,22,15,43,23.90
2013,08,22,15,44,23.80
2013,08,22,15,45,23.80
2013,08,22,15,46,23.80
2013,08,22,15,47,23.80
2013,08,22,15,48,23.90
2013,08,22,15,49,23.90
2013,08,22,15,50,23.90
2013,08,22,15,51,23.90
2013,08,22,15,52,23.90
2013,08,22,15,53,23.90
2013,08,22,15,54,23.80
2013,08,22,15,55,23.80
2013,08,22,15,56,23.80
2013,08,22,15,57,23.80
2013,08,22,15,58,23.80
2013,08,22,15,59,23.80
2013,08,22,16,00,23.90
2013,08,22,16,01,23.90
2013,08,22,16,02,24.00
2013,08,22,16,03,24.10
2013,08,22,16,04,24.20
2013,08,22,16,05,24.30
2013,08,22,16,06,24.40
2013,08,22,16,07,24.50
2013,08,22,16,08,24.60
2013,08,22,16,09,24.70
2013,08,22,16,10,24.70
2013,08,22,16,11,24.80
2013,08,22,16,12,24.80
2013,08,22,16,13,24.90
2013,08,22,16,14,25.00
2013,08,22,16,15,25.00
2013,08,22,16,16,25.10
2013,08,22,16,17,25.10
2013,08,22,16,18,25.20
2013,08,22,16,19,25.30
2013,08,22,16,20,25.30
2013,08,22,16,21,25.40
2013,08,22,16,22,25.50
2013,08,22,16,23,25.60
2013,08,22,16,24,25.70
2013,08,22,16,25,25.80
2013,08,22,16,26,25.90
2013,08,22,16,27,25.90
2013,08,22,16,28,25.90
2013,08,22,16,29,25.90
2013,08,22,16,30,25.90
2013,08,22,16,31,25.90
2013,08,22,16,32,25.90
2013,08,22,16,33,25.90
2013,08,22,16,34,25.90
2013,08,22,16,35,25.90
2013,08,22,16,36,25.90
2013,08,22,16,37,25.90
2013,08,22,16,38,25.90
2013,08,22,16,39,25.90
2013,08,22,16,40,25.90
2013,08,22,16,41,25.90
2013,08,22,16,42,25.90
2013,08,22,16,43,25.90
2013,08,22,16,44,25.90
2013,08,22,16,45,25.90
2013,08,22,16,46,25.90
2013,08,22,16,47,25.90
2013,08,22,16,48,25.90
2013,08,22,16,49,25.90
2013,08,22,16,50,25.80
2013,08,22,16,51,25.80
2013,08,22,16,52,25.80
2013,08,22,16,53,25.80
2013,08,22,16,54,25.80
2013,08,22,16,55,25.80
2013,08,22,16,56,25.80
2013,08,22,16,57,25.90
2013,08,22,16,58,25.90
2013,08,22,16,59,25.90
2013,08,22,17,00,25.90
2013,08,22,17,01,25.90
2013,08,22,17,02,25.90
2013,08,22,17,03,25.90
2013,08,22,17,04,25.90
2013,08,22,17,05,25.90
2013,08,22,17,06,25.90
2013,08,22,17,07,25.80
2013,08,22,17,08,25.80
2013,08,22,17,09,25.80
2013,08,22,17,10,25.70
2013,08,22,17,11,25.70
2013,08,22,17,12,25.70
2013,08,22,17,13,25.60
2013,08,22,17,14,25.50
2013,08,22,17,15,25.40
2013,08,22,17,16,25.30
2013,08,22,17,17,25.20
2013,08,22,17,18,25.10
2013,08,22,17,19,25.10